Location: Goettingen
(51.5300°N, 9.9433°E)
Time: 04:47:42
(UTC+01:00)

ISS - Pass Details

Date: 04 December 2021
Orbit: 417 x 423 km, 51.6° (Epoch: 29 November)

Event Time Altitude Azimuth Distance (km) Brightness Sun altitude
Rises 19:34:39 0° 278° (W) 2,379 1.2 -30.3°
Reaches altitude 10° 19:37:48 10° 247° (WSW) 1,509 -0.2 -30.7°
Enters shadow 19:38:07 11° 241° (WSW) 1,459 -0.4 -30.8°
